Starlink 35998

operational
NORAD ID: 68055 Int'l Des: 2026-041 Owner: SPXS Country: US Constellation: starlink
NOTLE

Über Starlink 35998

Beschreibung wird geladen...

Live-Position

3D-Globus wird geladen...

Nächste Überflüge

Höhenverlauf

Altitude vs Time

uPlot chart will show altitude changes over time

Zweizeiliger Elementsatz

1 68055C 26041R 26061.44215278 .00454470 00000+0 60857-3 0 617
2 68055 53.1641 99.6781 0008013 277.5489 147.7150 16.05312140 19
Epoch: 2. März 2026 • Age: 26 hours

Aktueller Status

Höhe 265.6 km
Geschwindigkeit 7.75 km/s
Subsatellitenpunkt 40.63°N, 47.24°W
Startdatum 2. März 2026
Alter N/A
Typ internet

Technische Details

Klassifizierung Payload
Masse 575.00 kg
Trockenmasse 530.00 kg
Gesamtmasse 575.00 kg
Länge 0.30 m
Durchmesser 4.10 m
Spannweite 29.00 m
Form Box + pan
Hersteller SPXS
Bus-Typ Starlink V2MO
Phasenstatus In Orbit
Besitzer/Staat SPXS/US

Große Konstellationen

Loading constellations...